| time (UTC) | temp C | wind direction | speed KPH | gust KPH | rain 1hr cm | rain 24hr cm | rain mn cm | humidity % | barometer mb |
| 20260507061525 | 9 | 281 | 4.8 | 11.3 | 0.00 | 0.94 | 0.00 | 90 | 1006.1 |
| 20260507061010 | 9 | 271 | 1.6 | 6.4 | 0.00 | 0.94 | 0.00 | 90 | 1006.2 |
| 20260507060507 | 9 | 271 | 3.2 | 6.4 | 0.00 | 0.94 | 0.00 | 91 | 1006.2 |
| 20260507060016 | 10 | 270 | 3.2 | 4.8 | 0.00 | 0.94 | 0.00 | 90 | 1006.1 |
| 20260507055510 | 10 | 275 | 1.6 | 4.8 | 0.00 | 0.94 | 0.00 | 90 | 1006.0 |
| 20260507055005 | 10 | 277 | 1.6 | 4.8 | 0.00 | 0.94 | 0.00 | 90 | 1006.0 |
| 20260507054518 | 10 | 278 | 1.6 | 4.8 | 0.00 | 0.94 | 0.00 | 90 | 1006.0 |
| 20260507054007 | 10 | 275 | 1.6 | 4.8 | 0.00 | 0.94 | 0.00 | 90 | 1006.1 |
| 20260507053513 | 10 | 269 | 1.6 | 4.8 | 0.00 | 0.94 | 0.00 | 90 | 1005.9 |
| 20260507053024 | 10 | 284 | 1.6 | 4.8 | 0.00 | 0.94 | 0.00 | 91 | 1006.1 |
| 20260507052510 | 10 | 277 | 3.2 | 4.8 | 0.00 | 0.94 | 0.00 | 91 | 1006.2 |
| 20260507052013 | 10 | 281 | 1.6 | 4.8 | 0.00 | 0.94 | 0.00 | 91 | 1006.1 |
| 20260507051511 | 10 | 281 | 1.6 | 4.8 | 0.00 | 0.94 | 0.00 | 91 | 1006.1 |
| 20260507051002 | 10 | 290 | 1.6 | 6.4 | 0.00 | 0.94 | 0.00 | 90 | 1005.9 |
| 20260507050502 | 10 | 272 | 1.6 | 6.4 | 0.00 | 0.94 | 0.00 | 90 | 1005.9 |
| 20260507050010 | 10 | 277 | 1.6 | 3.2 | 0.00 | 0.94 | 0.00 | 91 | 1005.9 |
| 20260507045506 | 10 | 275 | 0.0 | 3.2 | 0.00 | 0.94 | 0.00 | 91 | 1006.2 |
| 20260507045006 | 10 | 284 | 0.0 | 3.2 | 0.00 | 0.94 | 0.00 | 91 | 1006.2 |
| 20260507044538 | 10 | 284 | 1.6 | 3.2 | 0.00 | 0.94 | 0.00 | 92 | 1006.3 |
| 20260507044007 | 11 | 259 | 0.0 | 4.8 | 0.00 | 0.94 | 0.00 | 92 | 1006.2 |
| 20260507043502 | 11 | 259 | 0.0 | 4.8 | 0.00 | 0.94 | 0.00 | 92 | 1006.1 |
| 20260507043004 | 11 | 290 | 1.6 | 6.4 | 0.00 | 0.94 | 0.00 | 92 | 1005.9 |
| 20260507042504 | 11 | 296 | 0.0 | 6.4 | 0.00 | 0.94 | 0.00 | 92 | 1005.9 |
| 20260507042002 | 11 | 277 | 0.0 | 3.2 | 0.00 | 0.94 | 0.00 | 92 | 1005.8 |
| 20260507041510 | 11 | 277 | 1.6 | 4.8 | 0.00 | 0.94 | 0.00 | 92 | 1005.9 |
| 20260507041002 | 11 | 277 | 1.6 | 4.8 | 0.00 | 0.94 | 0.00 | 92 | 1005.9 |
| 20260507040504 | 11 | 282 | 0.0 | 3.2 | 0.00 | 0.94 | 0.00 | 92 | 1005.8 |
| 20260507040014 | 11 | 288 | 0.0 | 3.2 | 0.00 | 0.94 | 0.00 | 92 | 1005.6 |
| 20260507035504 | 11 | 286 | 0.0 | 4.8 | 0.00 | 0.94 | 0.94 | 92 | 1005.6 |
| 20260507035007 | 11 | 286 | 1.6 | 4.8 | 0.00 | 0.94 | 0.94 | 92 | 1005.6 |
| 20260507034516 | 11 | 287 | 1.6 | 9.7 | 0.00 | 0.94 | 0.94 | 91 | 1005.6 |
| 20260507034007 | 12 | 292 | 1.6 | 9.7 | 0.00 | 0.94 | 0.94 | 91 | 1005.6 |
| 20260507033508 | 12 | 279 | 1.6 | 4.8 | 0.00 | 0.94 | 0.94 | 91 | 1005.5 |
| 20260507033020 | 12 | 277 | 1.6 | 6.4 | 0.00 | 0.94 | 0.94 | 91 | 1005.5 |
| 20260507032509 | 12 | 275 | 1.6 | 6.4 | 0.03 | 0.94 | 0.94 | 91 | 1005.6 |
| 20260507032003 | 12 | 275 | 3.2 | 8.0 | 0.05 | 0.94 | 0.94 | 91 | 1005.7 |
| 20260507031508 | 12 | 270 | 4.8 | 12.9 | 0.05 | 0.94 | 0.94 | 91 | 1005.5 |
| 20260507031004 | 13 | 270 | 4.8 | 12.9 | 0.05 | 0.94 | 0.94 | 92 | 1005.5 |
| 20260507030503 | 13 | 274 | 3.2 | 12.9 | 0.05 | 0.94 | 0.94 | 92 | 1005.5 |
| 20260507030012 | 13 | 286 | 3.2 | 12.9 | 0.05 | 0.94 | 0.94 | 93 | 1005.5 |
| 20260507025502 | 13 | 270 | 3.2 | 6.4 | 0.05 | 0.94 | 0.94 | 93 | 1005.5 |
| 20260507025006 | 14 | 294 | 3.2 | 6.4 | 0.05 | 0.94 | 0.94 | 94 | 1005.3 |
| 20260507024515 | 14 | 285 | 1.6 | 6.4 | 0.05 | 0.94 | 0.94 | 94 | 1005.1 |
| 20260507024006 | 15 | 280 | 3.2 | 4.8 | 0.05 | 0.94 | 0.94 | 94 | 1005.1 |
| 20260507023506 | 15 | 282 | 1.6 | 3.2 | 0.05 | 0.94 | 0.94 | 94 | 1005.0 |
| 20260507023017 | 15 | 232 | 0.0 | 3.2 | 0.05 | 0.94 | 0.94 | 94 | 1004.9 |
| 20260507022507 | 15 | 214 | 0.0 | 3.2 | 0.03 | 0.91 | 0.91 | 94 | 1004.9 |
| 20260507022009 | 15 | 213 | 0.0 | 3.2 | 0.00 | 0.89 | 0.89 | 94 | 1004.9 |
| 20260507021528 | 15 | 214 | 0.0 | 3.2 | 0.00 | 0.89 | 0.89 | 94 | 1004.8 |
| 20260507021005 | 15 | 215 | 0.0 | 3.2 | 0.00 | 0.89 | 0.89 | 94 | 1004.9 |
| 20260507020505 | 15 | 215 | 0.0 | 3.2 | 0.00 | 0.89 | 0.89 | 94 | 1005.0 |
| 20260507020010 | 15 | 215 | 0.0 | 3.2 | 0.00 | 0.89 | 0.89 | 94 | 1005.0 |
| 20260507015502 | 15 | 181 | 0.0 | 3.2 | 0.00 | 0.89 | 0.89 | 94 | 1005.0 |
| 20260507015005 | 15 | 170 | 0.0 | 3.2 | 0.00 | 0.89 | 0.89 | 94 | 1005.0 |
| 20260507014512 | 15 | 190 | 0.0 | 3.2 | 0.00 | 0.89 | 0.89 | 94 | 1005.1 |
| 20260507014006 | 15 | 199 | 1.6 | 3.2 | 0.00 | 0.89 | 0.89 | 94 | 1005.1 |
| 20260507013505 | 15 | 130 | 1.6 | 4.8 | 0.00 | 0.89 | 0.89 | 94 | 1005.2 |
| 20260507013019 | 15 | 198 | 1.6 | 4.8 | 0.00 | 0.89 | 0.89 | 94 | 1005.2 |
| 20260507012508 | 15 | 195 | 0.0 | 3.2 | 0.00 | 0.89 | 0.89 | 94 | 1005.1 |
| 20260507012008 | 15 | 192 | 0.0 | 3.2 | 0.00 | 0.89 | 0.89 | 94 | 1005.1 |
| 20260507011524 | 15 | 178 | 0.0 | 3.2 | 0.00 | 0.89 | 0.89 | 94 | 1005.2 |
| 20260507011012 | 15 | 178 | 0.0 | 3.2 | 0.00 | 0.89 | 0.89 | 94 | 1005.2 |
| 20260507010509 | 15 | 184 | 0.0 | 3.2 | 0.00 | 0.89 | 0.89 | 94 | 1005.2 |
| 20260507010006 | 15 | 170 | 0.0 | 3.2 | 0.00 | 0.89 | 0.89 | 94 | 1005.2 |
| 20260507005503 | 15 | 175 | 0.0 | 3.2 | 0.00 | 0.89 | 0.89 | 94 | 1005.2 |
| 20260507005006 | 15 | 183 | 0.0 | 3.2 | 0.00 | 0.89 | 0.89 | 94 | 1005.1 |
| 20260507004511 | 15 | 208 | 0.0 | 3.2 | 0.00 | 0.89 | 0.89 | 94 | 1005.2 |
| 20260507004005 | 15 | 178 | 0.0 | 4.8 | 0.00 | 0.89 | 0.89 | 94 | 1005.2 |
| 20260507003502 | 15 | 214 | 1.6 | 4.8 | 0.00 | 0.89 | 0.89 | 94 | 1005.2 |
| 20260507003026 | 15 | 167 | 1.6 | 3.2 | 0.00 | 0.89 | 0.89 | 94 | 1005.1 |
| 20260507002506 | 15 | 194 | 0.0 | 4.8 | 0.00 | 0.89 | 0.89 | 94 | 1005.1 |
| 20260507002007 | 15 | 193 | 1.6 | 4.8 | 0.00 | 0.89 | 0.89 | 94 | 1005.0 |
| 20260507001534 | 15 | 180 | 1.6 | 3.2 | 0.00 | 0.89 | 0.89 | 94 | 1004.8 |
| 20260507001007 | 15 | 196 | 0.0 | 4.8 | 0.00 | 0.89 | 0.89 | 93 | 1004.8 |
| 20260507000508 | 15 | 200 | 1.6 | 4.8 | 0.00 | 0.89 | 0.89 | 93 | 1004.9 |
| 20260507000022 | 15 | 175 | 1.6 | 4.8 | 0.00 | 0.89 | 0.89 | 93 | 1004.9 |
| 20260506235507 | 15 | 175 | 1.6 | 4.8 | 0.00 | 0.89 | 0.89 | 93 | 1004.8 |
| 20260506235003 | 15 | 146 | 1.6 | 4.8 | 0.00 | 0.89 | 0.89 | 93 | 1004.8 |
| 20260506234509 | 15 | 176 | 1.6 | 4.8 | 0.00 | 0.89 | 0.89 | 93 | 1004.8 |
| 20260506234005 | 15 | 186 | 1.6 | 4.8 | 0.00 | 0.89 | 0.89 | 93 | 1004.8 |
| 20260506233503 | 15 | 159 | 0.0 | 8.0 | 0.00 | 0.89 | 0.89 | 93 | 1004.8 |
| 20260506233014 | 15 | 208 | 1.6 | 8.0 | 0.00 | 0.89 | 0.89 | 93 | 1004.8 |
| 20260506232503 | 15 | 178 | 0.0 | 4.8 | 0.00 | 0.89 | 0.89 | 93 | 1004.9 |
| 20260506232008 | 15 | 194 | 1.6 | 4.8 | 0.00 | 0.89 | 0.89 | 93 | 1004.9 |
| 20260506231518 | 15 | 145 | 1.6 | 3.2 | 0.00 | 0.89 | 0.89 | 93 | 1005.0 |
| 20260506231007 | 15 | 163 | 0.0 | 3.2 | 0.03 | 0.89 | 0.89 | 93 | 1005.0 |
| 20260506230505 | 15 | 184 | 0.0 | 4.8 | 0.03 | 0.89 | 0.89 | 93 | 1005.0 |
| 20260506230023 | 15 | 175 | 1.6 | 6.4 | 0.03 | 0.89 | 0.89 | 93 | 1005.0 |
| 20260506225507 | 15 | 134 | 1.6 | 6.4 | 0.03 | 0.89 | 0.89 | 93 | 1005.0 |
| 20260506225007 | 15 | 146 | 1.6 | 6.4 | 0.03 | 0.89 | 0.89 | 93 | 1005.0 |
| 20260506224526 | 15 | 211 | 0.0 | 3.2 | 0.03 | 0.89 | 0.89 | 93 | 1005.1 |
| 20260506224007 | 15 | 173 | 1.6 | 9.7 | 0.05 | 0.89 | 0.89 | 93 | 1005.1 |
| 20260506223502 | 15 | 46 | 1.6 | 9.7 | 0.08 | 0.89 | 0.89 | 93 | 1005.2 |
| 20260506223012 | 15 | 180 | 1.6 | 6.4 | 0.08 | 0.89 | 0.89 | 93 | 1005.2 |
| 20260506222504 | 15 | 217 | 1.6 | 4.8 | 0.10 | 0.89 | 0.89 | 93 | 1005.2 |
| 20260506222008 | 15 | 206 | 0.0 | 12.9 | 0.10 | 0.89 | 0.89 | 93 | 1005.2 |
| 20260506221513 | 15 | 151 | 1.6 | 12.9 | 0.13 | 0.89 | 0.89 | 93 | 1005.2 |
| 20260506221007 | 15 | 240 | 1.6 | 9.7 | 0.10 | 0.86 | 0.86 | 93 | 1005.2 |
| 20260506220507 | 15 | 160 | 3.2 | 9.7 | 0.10 | 0.86 | 0.86 | 93 | 1005.3 |
| 20260506220020 | 15 | 150 | 1.6 | 8.0 | 0.10 | 0.86 | 0.86 | 93 | 1005.4 |
| 20260506215507 | 15 | 157 | 1.6 | 8.0 | 0.13 | 0.86 | 0.86 | 93 | 1005.5 |
| 20260506215006 | 15 | 169 | 1.6 | 12.9 | 0.13 | 0.86 | 0.86 | 93 | 1005.5 |
| 20260506214524 | 15 | 185 | 1.6 | 12.9 | 0.13 | 0.86 | 0.86 | 93 | 1005.5 |
| 20260506214015 | 15 | 150 | 3.2 | 12.9 | 0.13 | 0.84 | 0.84 | 93 | 1005.6 |
| 20260506213512 | 15 | 208 | 3.2 | 9.7 | 0.10 | 0.81 | 0.81 | 93 | 1005.6 |
| 20260506213024 | 15 | 190 | 1.6 | 8.0 | 0.13 | 0.81 | 0.81 | 93 | 1005.6 |
| 20260506212504 | 16 | 132 | 3.2 | 12.9 | 0.13 | 0.79 | 0.79 | 93 | 1005.7 |
| 20260506212006 | 16 | 148 | 3.2 | 12.9 | 0.13 | 0.79 | 0.79 | 93 | 1005.6 |
| 20260506211511 | 16 | 125 | 1.6 | 3.2 | 0.13 | 0.76 | 0.76 | 94 | 1005.8 |
| 20260506211006 | 16 | 117 | 1.6 | 8.0 | 0.15 | 0.76 | 0.76 | 93 | 1005.7 |
| 20260506210506 | 16 | 167 | 1.6 | 6.4 | 0.18 | 0.76 | 0.76 | 93 | 1005.8 |
| 20260506210021 | 16 | 173 | 1.6 | 6.4 | 0.18 | 0.76 | 0.76 | 93 | 1005.8 |
| 20260506205509 | 16 | 184 | 0.0 | 8.0 | 0.18 | 0.74 | 0.74 | 94 | 1005.8 |
| 20260506205010 | 16 | 199 | 0.0 | 8.0 | 0.18 | 0.74 | 0.74 | 94 | 1005.8 |
| 20260506204525 | 16 | 129 | 1.6 | 3.2 | 0.18 | 0.74 | 0.74 | 94 | 1005.9 |
| 20260506204008 | 16 | 88 | 1.6 | 3.2 | 0.15 | 0.71 | 0.71 | 94 | 1005.9 |
| 20260506203509 | 16 | 169 | 0.0 | 3.2 | 0.15 | 0.71 | 0.71 | 94 | 1006.0 |
| 20260506203031 | 16 | 165 | 0.0 | 3.2 | 0.15 | 0.69 | 0.69 | 94 | 1006.0 |
| 20260506202509 | 16 | 165 | 0.0 | 3.2 | 0.13 | 0.66 | 0.66 | 93 | 1006.1 |
| 20260506202014 | 16 | 165 | 0.0 | 3.2 | 0.13 | 0.66 | 0.66 | 93 | 1006.1 |
| 20260506201510 | 16 | 165 | 0.0 | 4.8 | 0.13 | 0.64 | 0.64 | 93 | 1006.1 |
| 20260506201004 | 16 | 167 | 0.0 | 4.8 | 0.10 | 0.61 | 0.61 | 93 | 1006.2 |
| 20260506200510 | 16 | 167 | 0.0 | 3.2 | 0.10 | 0.58 | 0.58 | 93 | 1006.1 |
| 20260506200013 | 16 | 131 | 0.0 | 3.2 | 0.13 | 0.58 | 0.58 | 93 | 1006.0 |
| 20260506195507 | 16 | 144 | 0.0 | 3.2 | 0.10 | 0.56 | 0.56 | 93 | 1005.9 |
| 20260506195010 | 16 | 146 | 0.0 | 3.2 | 0.15 | 0.56 | 0.56 | 93 | 1006.0 |
| 20260506194522 | 16 | 146 | 0.0 | 3.2 | 0.20 | 0.56 | 0.56 | 93 | 1006.0 |
| 20260506194009 | 16 | 144 | 0.0 | 3.2 | 0.23 | 0.56 | 0.56 | 93 | 1006.0 |
| 20260506193502 | 16 | 144 | 0.0 | 3.2 | 0.25 | 0.56 | 0.56 | 93 | 1006.0 |
| 20260506193007 | 16 | 224 | 0.0 | 3.2 | 0.25 | 0.53 | 0.53 | 93 | 1006.2 |
| 20260506192503 | 16 | 227 | 0.0 | 3.2 | 0.28 | 0.53 | 0.53 | 92 | 1006.2 |
| 20260506192006 | 16 | 227 | 0.0 | 3.2 | 0.28 | 0.53 | 0.53 | 92 | 1006.3 |
| 20260506191510 | 16 | 228 | 0.0 | 3.2 | 0.28 | 0.51 | 0.51 | 92 | 1006.4 |
| 20260506191006 | 16 | 228 | 0.0 | 3.2 | 0.30 | 0.51 | 0.51 | 92 | 1006.4 |
| 20260506190506 | 16 | 228 | 0.0 | 3.2 | 0.38 | 0.48 | 0.48 | 92 | 1006.6 |
| 20260506190014 | 16 | 228 | 0.0 | 3.2 | 0.46 | 0.46 | 0.46 | 92 | 1006.7 |
| 20260506185506 | 16 | 280 | 0.0 | 3.2 | 0.46 | 0.46 | 0.46 | 92 | 1006.8 |
| 20260506185005 | 16 | 280 | 1.6 | 3.2 | 0.41 | 0.41 | 0.41 | 91 | 1006.9 |
| 20260506184526 | 16 | 249 | 1.6 | 3.2 | 0.36 | 0.36 | 0.36 | 91 | 1006.7 |
| 20260506184007 | 16 | 284 | 1.6 | 3.2 | 0.33 | 0.33 | 0.33 | 91 | 1006.7 |
| 20260506183509 | 16 | 271 | 1.6 | 3.2 | 0.30 | 0.30 | 0.30 | 90 | 1006.7 |
| 20260506183022 | 16 | 240 | 0.0 | 4.8 | 0.28 | 0.28 | 0.28 | 90 | 1006.8 |
| 20260506182509 | 16 | 225 | 1.6 | 4.8 | 0.25 | 0.25 | 0.25 | 89 | 1006.7 |
| 20260506182003 | 16 | 272 | 0.0 | 3.2 | 0.25 | 0.25 | 0.25 | 88 | 1006.8 |
| 20260506181508 | 16 | 280 | 0.0 | 4.8 | 0.23 | 0.23 | 0.23 | 87 | 1006.9 |
| 20260506181003 | 17 | 242 | 3.2 | 6.4 | 0.20 | 0.20 | 0.20 | 84 | 1007.2 |
| 20260506180506 | 18 | 261 | 1.6 | 6.4 | 0.10 | 0.10 | 0.10 | 79 | 1007.0 |
| 20260506180023 | 20 | 244 | 3.2 | 8.0 | 0.00 | 0.00 | 0.00 | 68 | 1006.8 |
| 20260506175507 | 21 | 229 | 3.2 | 14.5 | 0.00 | 0.00 | 0.00 | 60 | 1006.4 |
| 20260506175006 | 21 | 194 | 3.2 | 14.5 | 0.00 | 0.00 | 0.00 | 58 | 1006.3 |
| 20260506174517 | 21 | 254 | 3.2 | 14.5 | 0.00 | 0.00 | 0.00 | 56 | 1006.0 |
| 20260506174005 | 21 | 136 | 4.8 | 14.5 | 0.00 | 0.00 | 0.00 | 56 | 1006.0 |
| 20260506173506 | 22 | 192 | 3.2 | 14.5 | 0.00 | 0.00 | 0.00 | 55 | 1006.0 |
| 20260506173023 | 22 | 178 | 1.6 | 17.7 | 0.00 | 0.00 | 0.00 | 56 | 1006.1 |
| 20260506172509 | 22 | 217 | 3.2 | 17.7 | 0.00 | 0.00 | 0.00 | 55 | 1006.2 |
| 20260506172009 | 22 | 211 | 3.2 | 14.5 | 0.00 | 0.00 | 0.00 | 56 | 1006.4 |
| 20260506171524 | 22 | 155 | 3.2 | 12.9 | 0.00 | 0.00 | 0.00 | 56 | 1006.3 |
| 20260506171003 | 22 | 211 | 3.2 | 12.9 | 0.00 | 0.00 | 0.00 | 56 | 1006.5 |
| 20260506170505 | 22 | 110 | 1.6 | 11.3 | 0.00 | 0.00 | 0.00 | 57 | 1006.6 |
| 20260506170016 | 22 | 229 | 3.2 | 11.3 | 0.00 | 0.00 | 0.00 | 57 | 1006.6 |
| 20260506165506 | 21 | 173 | 4.8 | 9.7 | 0.00 | 0.00 | 0.00 | 57 | 1006.7 |
| 20260506165006 | 21 | 197 | 1.6 | 9.7 | 0.00 | 0.00 | 0.00 | 59 | 1006.8 |
| 20260506164520 | 21 | 126 | 4.8 | 12.9 | 0.00 | 0.00 | 0.00 | 58 | 1007.0 |
| 20260506164009 | 21 | 134 | 3.2 | 12.9 | 0.00 | 0.00 | 0.00 | 58 | 1007.0 |
| 20260506163514 | 21 | 194 | 3.2 | 8.0 | 0.00 | 0.00 | 0.00 | 58 | 1007.1 |
| 20260506163023 | 21 | 184 | 1.6 | 16.1 | 0.00 | 0.00 | 0.00 | 59 | 1007.2 |
| 20260506162509 | 21 | 112 | 4.8 | 16.1 | 0.00 | 0.00 | 0.00 | 58 | 1007.3 |
| 20260506162014 | 21 | 138 | 3.2 | 14.5 | 0.00 | 0.00 | 0.00 | 59 | 1007.3 |
| 20260506161526 | 21 | 171 | 3.2 | 14.5 | 0.00 | 0.00 | 0.00 | 59 | 1007.4 |
| 20260506161010 | 21 | 153 | 3.2 | 9.7 | 0.00 | 0.00 | 0.00 | 60 | 1007.5 |
| 20260506160511 | 21 | 205 | 3.2 | 11.3 | 0.00 | 0.00 | 0.00 | 60 | 1007.6 |
| 20260506160012 | 21 | 180 | 1.6 | 11.3 | 0.00 | 0.00 | 0.00 | 61 | 1007.8 |
| 20260506155505 | 21 | 192 | 4.8 | 14.5 | 0.00 | 0.00 | 0.00 | 60 | 1007.8 |
| 20260506155007 | 21 | 155 | 3.2 | 14.5 | 0.00 | 0.00 | 0.00 | 60 | 1007.9 |
| 20260506154520 | 21 | 128 | 1.6 | 11.3 | 0.00 | 0.00 | 0.00 | 61 | 1008.0 |
| 20260506154006 | 21 | 182 | 1.6 | 6.4 | 0.00 | 0.00 | 0.00 | 62 | 1008.2 |
| 20260506153505 | 21 | 144 | 3.2 | 6.4 | 0.00 | 0.00 | 0.00 | 62 | 1008.4 |
| 20260506153021 | 21 | 162 | 0.0 | 9.7 | 0.00 | 0.00 | 0.00 | 63 | 1008.4 |
| 20260506152506 | 21 | 165 | 1.6 | 9.7 | 0.00 | 0.00 | 0.00 | 63 | 1008.5 |
| 20260506152010 | 20 | 198 | 3.2 | 8.0 | 0.00 | 0.00 | 0.00 | 64 | 1008.4 |
| 20260506151531 | 20 | 139 | 3.2 | 8.0 | 0.00 | 0.00 | 0.00 | 64 | 1008.2 |
| 20260506151014 | 20 | 181 | 1.6 | 6.4 | 0.00 | 0.00 | 0.00 | 64 | 1008.2 |
| 20260506150507 | 20 | 171 | 0.0 | 6.4 | 0.00 | 0.00 | 0.00 | 66 | 1008.4 |
| 20260506150025 | 20 | 185 | 3.2 | 11.3 | 0.00 | 0.00 | 0.00 | 66 | 1008.5 |
| 20260506145517 | 20 | 185 | 1.6 | 11.3 | 0.00 | 0.00 | 0.00 | 66 | 1008.5 |
| 20260506145004 | 19 | 161 | 3.2 | 8.0 | 0.00 | 0.00 | 0.00 | 66 | 1008.5 |
| 20260506144515 | 19 | 161 | 3.2 | 6.4 | 0.00 | 0.00 | 0.00 | 67 | 1008.3 |
| 20260506144003 | 19 | 124 | 3.2 | 9.7 | 0.00 | 0.00 | 0.00 | 67 | 1008.4 |
| 20260506143506 | 19 | 292 | 1.6 | 9.7 | 0.00 | 0.00 | 0.00 | 68 | 1008.5 |
| 20260506143020 | 19 | 171 | 3.2 | 8.0 | 0.00 | 0.00 | 0.00 | 67 | 1008.4 |
| 20260506142510 | 19 | 216 | 1.6 | 4.8 | 0.00 | 0.00 | 0.00 | 67 | 1008.2 |
| 20260506142009 | 20 | 228 | 1.6 | 4.8 | 0.00 | 0.00 | 0.00 | 67 | 1008.1 |
| 20260506141521 | 20 | 150 | 1.6 | 6.4 | 0.00 | 0.00 | 0.00 | 68 | 1008.1 |
| 20260506141008 | 19 | 184 | 3.2 | 8.0 | 0.00 | 0.00 | 0.00 | 68 | 1008.3 |
| 20260506140510 | 18 | 129 | 3.2 | 8.0 | 0.00 | 0.00 | 0.00 | 68 | 1008.3 |
| 20260506140029 | 18 | 183 | 3.2 | 11.3 | 0.00 | 0.00 | 0.00 | 69 | 1008.3 |
| 20260506135510 | 18 | 162 | 1.6 | 11.3 | 0.00 | 0.00 | 0.00 | 69 | 1008.4 |
| 20260506135006 | 18 | 184 | 3.2 | 8.0 | 0.00 | 0.00 | 0.00 | 69 | 1008.4 |
| 20260506134527 | 18 | 159 | 1.6 | 6.4 | 0.00 | 0.00 | 0.00 | 70 | 1008.4 |
| 20260506134003 | 18 | 207 | 3.2 | 6.4 | 0.00 | 0.00 | 0.00 | 70 | 1008.5 |
| 20260506133506 | 18 | 173 | 3.2 | 4.8 | 0.00 | 0.00 | 0.00 | 70 | 1008.6 |
| 20260506133029 | 18 | 142 | 1.6 | 6.4 | 0.00 | 0.00 | 0.00 | 71 | 1008.6 |
| 20260506132509 | 18 | 175 | 1.6 | 6.4 | 0.00 | 0.00 | 0.00 | 70 | 1008.6 |
| 20260506132007 | 18 | 217 | 1.6 | 6.4 | 0.00 | 0.00 | 0.00 | 70 | 1008.5 |
| 20260506131526 | 18 | 170 | 0.0 | 6.4 | 0.00 | 0.00 | 0.00 | 70 | 1008.5 |
| 20260506131007 | 18 | 171 | 1.6 | 8.0 | 0.00 | 0.00 | 0.00 | 70 | 1008.6 |
| 20260506130508 | 18 | 213 | 1.6 | 8.0 | 0.00 | 0.00 | 0.00 | 71 | 1008.7 |
| 20260506130024 | 18 | 181 | 1.6 | 9.7 | 0.00 | 0.00 | 0.00 | 71 | 1008.7 |
| 20260506125508 | 18 | 115 | 3.2 | 9.7 | 0.00 | 0.00 | 0.00 | 71 | 1008.6 |
| 20260506125009 | 17 | 152 | 1.6 | 6.4 | 0.00 | 0.00 | 0.00 | 72 | 1008.5 |
| 20260506124526 | 17 | 196 | 1.6 | 8.0 | 0.00 | 0.00 | 0.00 | 72 | 1008.5 |
| 20260506124011 | 17 | 173 | 3.2 | 11.3 | 0.00 | 0.00 | 0.00 | 72 | 1008.4 |
| 20260506123510 | 17 | 162 | 1.6 | 11.3 | 0.00 | 0.00 | 0.00 | 72 | 1008.6 |
| 20260506123016 | 17 | 167 | 1.6 | 11.3 | 0.00 | 0.00 | 0.00 | 72 | 1008.5 |
| 20260506122508 | 17 | 171 | 3.2 | 6.4 | 0.00 | 0.00 | 0.00 | 72 | 1008.7 |
| 20260506122006 | 17 | 161 | 1.6 | 8.0 | 0.00 | 0.00 | 0.00 | 72 | 1008.8 |
| 20260506121520 | 17 | 169 | 1.6 | 8.0 | 0.00 | 0.00 | 0.00 | 73 | 1008.8 |
| 20260506121012 | 17 | 188 | 1.6 | 3.2 | 0.00 | 0.00 | 0.00 | 74 | 1008.9 |
| 20260506120508 | 17 | 207 | 0.0 | 3.2 | 0.00 | 0.00 | 0.00 | 73 | 1008.9 |
| 20260506120034 | 17 | 201 | 1.6 | 6.4 | 0.00 | 0.00 | 0.00 | 74 | 1008.9 |
| 20260506115509 | 16 | 129 | 1.6 | 6.4 | 0.00 | 0.00 | 0.00 | 74 | 1009.0 |
| 20260506115012 | 16 | 242 | 0.0 | 4.8 | 0.00 | 0.00 | 0.00 | 74 | 1009.0 |
| 20260506114524 | 16 | 163 | 1.6 | 4.8 | 0.00 | 0.00 | 0.00 | 74 | 1009.0 |
| 20260506114009 | 16 | 215 | 0.0 | 3.2 | 0.00 | 0.00 | 0.00 | 74 | 1009.1 |
| 20260506113510 | 16 | 189 | 0.0 | 3.2 | 0.00 | 0.00 | 0.00 | 74 | 1009.0 |
| 20260506113028 | 16 | 211 | 0.0 | 3.2 | 0.00 | 0.00 | 0.00 | 75 | 1009.0 |
| 20260506112507 | 16 | 125 | 0.0 | 8.0 | 0.00 | 0.00 | 0.00 | 75 | 1009.1 |
| 20260506112005 | 16 | 211 | 1.6 | 8.0 | 0.00 | 0.00 | 0.00 | 75 | 1009.2 |
| 20260506111517 | 16 | 178 | 1.6 | 6.4 | 0.00 | 0.00 | 0.00 | 75 | 1009.1 |
| 20260506111007 | 16 | 92 | 3.2 | 6.4 | 0.00 | 0.00 | 0.00 | 75 | 1009.2 |
| 20260506110506 | 16 | 184 | 0.0 | 3.2 | 0.00 | 0.00 | 0.00 | 76 | 1009.5 |
| 20260506110003 | 16 | 152 | 0.0 | 4.8 | 0.00 | 0.00 | 0.00 | 76 | 1009.2 |
| 20260506105503 | 16 | 148 | 0.0 | 4.8 | 0.00 | 0.00 | 0.00 | 76 | 1009.2 |
| 20260506105003 | 16 | 130 | 0.0 | 4.8 | 0.00 | 0.00 | 0.00 | 76 | 1009.3 |
| 20260506104508 | 15 | 148 | 1.6 | 3.2 | 0.00 | 0.00 | 0.00 | 76 | 1009.2 |
| 20260506104003 | 15 | 131 | 0.0 | 3.2 | 0.00 | 0.00 | 0.00 | 77 | 1009.2 |
| 20260506103506 | 15 | 137 | 0.0 | 3.2 | 0.00 | 0.00 | 0.00 | 77 | 1009.2 |
| 20260506103012 | 15 | 202 | 0.0 | 3.2 | 0.00 | 0.00 | 0.00 | 76 | 1009.3 |
| 20260506102507 | 15 | 182 | 0.0 | 3.2 | 0.00 | 0.00 | 0.00 | 76 | 1009.3 |
| 20260506102004 | 15 | 159 | 1.6 | 3.2 | 0.00 | 0.00 | 0.00 | 76 | 1009.1 |
| 20260506101520 | 15 | 186 | 0.0 | 6.4 | 0.00 | 0.00 | 0.00 | 76 | 1009.1 |
| 20260506101007 | 15 | 122 | 1.6 | 6.4 | 0.00 | 0.00 | 0.00 | 76 | 1009.1 |
| 20260506100028 | 15 | 190 | 0.0 | 4.8 | 0.00 | 0.00 | 0.00 | 77 | 1009.3 |
| 20260506095503 | 15 | 140 | 0.0 | 4.8 | 0.00 | 0.00 | 0.00 | 76 | 1009.0 |
| 20260506095004 | 15 | 157 | 1.6 | 4.8 | 0.00 | 0.00 | 0.00 | 76 | 1009.1 |
| 20260506094506 | 15 | 141 | 1.6 | 4.8 | 0.00 | 0.00 | 0.00 | 77 | 1009.1 |
| 20260506094004 | 15 | 167 | 1.6 | 4.8 | 0.00 | 0.00 | 0.00 | 78 | 1009.0 |
| 20260506093504 | 15 | 135 | 0.0 | 3.2 | 0.00 | 0.00 | 0.00 | 77 | 1009.1 |
| 20260506093014 | 15 | 165 | 1.6 | 3.2 | 0.00 | 0.00 | 0.00 | 77 | 1009.1 |
| 20260506092509 | 14 | 169 | 0.0 | 3.2 | 0.00 | 0.00 | 0.00 | 78 | 1009.1 |
| 20260506092007 | 13 | 120 | 0.0 | 3.2 | 0.00 | 0.00 | 0.00 | 79 | 1008.9 |
| 20260506091519 | 13 | 120 | 0.0 | 3.2 | 0.00 | 0.00 | 0.00 | 79 | 1009.0 |
| 20260506091004 | 13 | 117 | 0.0 | 3.2 | 0.00 | 0.00 | 0.00 | 79 | 1009.0 |
| 20260506090506 | 13 | 121 | 0.0 | 3.2 | 0.00 | 0.00 | 0.00 | 78 | 1008.9 |
| 20260506085507 | 14 | 121 | 0.0 | 3.2 | 0.00 | 0.00 | 0.00 | 77 | 1009.0 |
| 20260506085007 | 14 | 121 | 0.0 | 4.8 | 0.00 | 0.00 | 0.00 | 77 | 1009.0 |
| 20260506084508 | 14 | 166 | 1.6 | 4.8 | 0.00 | 0.00 | 0.00 | 78 | 1008.9 |
| 20260506084003 | 13 | 95 | 0.0 | 3.2 | 0.00 | 0.00 | 0.00 | 78 | 1009.1 |
| 20260506083503 | 13 | 95 | 0.0 | 3.2 | 0.00 | 0.00 | 0.00 | 78 | 1009.0 |
| 20260506083010 | 13 | 95 | 0.0 | 3.2 | 0.00 | 0.00 | 0.00 | 78 | 1009.0 |
| 20260506082505 | 14 | 95 | 0.0 | 3.2 | 0.00 | 0.00 | 0.00 | 77 | 1009.0 |
| 20260506082004 | 14 | 95 | 0.0 | 3.2 | 0.00 | 0.00 | 0.00 | 77 | 1009.0 |
| 20260506081518 | 14 | 95 | 0.0 | 3.2 | 0.00 | 0.00 | 0.00 | 75 | 1009.0 |
| 20260506081010 | 15 | 188 | 0.0 | 3.2 | 0.00 | 0.00 | 0.00 | 75 | 1009.0 |
| 20260506080506 | 15 | 188 | 0.0 | 3.2 | 0.00 | 0.00 | 0.00 | 74 | 1009.0 |
| 20260506073503 | 16 | 179 | 0.0 | 4.8 | 0.00 | 0.00 | 0.00 | 68 | 1008.8 |
| 20260506073010 | 16 | 186 | 1.6 | 4.8 | 0.00 | 0.00 | 0.00 | 69 | 1008.7 |
| 20260506072504 | 16 | 231 | 0.0 | 3.2 | 0.00 | 0.00 | 0.00 | 69 | 1008.6 |
| 20260506072005 | 16 | 231 | 0.0 | 3.2 | 0.00 | 0.00 | 0.00 | 69 | 1008.6 |
| 20260506071514 | 16 | 231 | 0.0 | 3.2 | 0.00 | 0.00 | 0.00 | 68 | 1008.6 |
| 20260506071003 | 16 | 231 | 0.0 | 3.2 | 0.00 | 0.00 | 0.00 | 68 | 1008.6 |
| 20260506070504 | 16 | 184 | 0.0 | 4.8 | 0.00 | 0.00 | 0.00 | 66 | 1008.5 |
| 20260506062502 | 17 | 115 | 3.2 | 4.8 | 0.00 | 0.00 | 0.00 | 65 | 1008.3 |
| 20260506062003 | 17 | 163 | 1.6 | 6.4 | 0.00 | 0.00 | 0.00 | 65 | 1008.4 |